Weather History for K21D - August, 2013

Change the Weather History Date:

Sunday, August 4, 2013

  Actual Average (KSTP) Record (KSTP)
Temperature  
Mean Temperature 62 °F -  
Max Temperature 75 °F 80 °F 91 °F (2001)
Min Temperature 50 °F 60 °F 55 °F (2013)
Degree Days  
Heating Degree Days 2    
Growing Degree Days 12 (Base 50)    
Moisture  
Dew Point 53 °F    
Average Humidity 73    
Maximum Humidity 100    
Minimum Humidity 47    
Precipitation  
Precipitation 0.00 in - - ()
Sea Level Pressure  
Sea Level Pressure 30.18 in    
Wind  
Wind Speed 2 mph (SSE)    
Max Wind Speed 9 mph    
Max Gust Speed -    
Visibility 10 miles    
Events      
Averages and records for this station are not official NWS values.
T = Trace of Precipitation, MM = Missing Value Source: NWS Daily Summary

Daily Weather History Graph

Daily Weather History Graph

Search for Another Location

Airport or City:

Trip Planner

Search our weather history database for the weather conditions in past years. The results will help you decide how hot, cold, wet, or windy it might be!

Date:

Astronomy

Aug. 04, 2013 Rise Set
Actual Time 6:00 AM CDT 8:33 PM CDT
Civil Twilight 5:27 AM CDT 9:06 PM CDT
Nautical Twilight 4:45 AM CDT 9:48 PM CDT
Astronomical Twilight 3:57 AM CDT 10:35 PM CDT
Moon 4:01 AM CDT (8/4) 6:57 PM CDT (8/4)
Length of Visible Light 15h 39m
Length of Day
14h 33m
Waning Crescent, 4% of the Moon is Illuminated
Aug 4
Waning Crescent
Aug 6
New
Aug 14
First Quarter
Aug 20
Full
Aug 28
Last Quarter

Hourly Weather History & Observations

Time (CDT) Temp. Dew Point Humidity Pressure Visibility Wind Dir Wind Speed Gust Speed Precip Events Conditions
12:05 AM 55.4 °F 51.8 °F 88% 30.22 in 10.0 mi Calm Calm - N/A   Clear
12:25 AM 53.6 °F 50.0 °F 88% 30.22 in 10.0 mi Calm Calm - N/A   Clear
12:45 AM 53.6 °F 50.0 °F 88% 30.22 in 10.0 mi Calm Calm - N/A   Clear
1:05 AM 53.6 °F 51.8 °F 94% 30.22 in 10.0 mi Calm Calm - N/A   Clear
1:25 AM 51.8 °F 48.2 °F 88% 30.23 in 10.0 mi Calm Calm - N/A   Clear
1:45 AM 51.8 °F 50.0 °F 94% 30.24 in 10.0 mi Calm Calm - N/A   Clear
2:05 AM 53.6 °F 50.0 °F 88% 30.23 in 10.0 mi Calm Calm - N/A   Clear
2:25 AM 51.8 °F 50.0 °F 94% 30.24 in 10.0 mi Calm Calm - N/A   Clear
2:45 AM 51.8 °F 50.0 °F 94% 30.23 in 10.0 mi Calm Calm - N/A   Clear
3:05 AM 51.8 °F 50.0 °F 94% 30.23 in 10.0 mi Calm Calm - N/A   Clear
3:25 AM 50.0 °F 48.2 °F 94% 30.22 in 10.0 mi Calm Calm - N/A   Clear
3:45 AM 51.8 °F 50.0 °F 94% 30.22 in 10.0 mi Calm Calm - N/A   Clear
4:05 AM 50.0 °F 50.0 °F 100% 30.22 in 10.0 mi Calm Calm - N/A   Clear
4:25 AM 50.0 °F 50.0 °F 100% 30.21 in 10.0 mi NNE 3.5 mph - N/A   Clear
4:45 AM 50.0 °F 50.0 °F 100% 30.21 in 10.0 mi Calm Calm - N/A   Clear
5:05 AM 50.0 °F 50.0 °F 100% 30.20 in 10.0 mi Calm Calm - N/A   Clear
5:25 AM 50.0 °F 48.2 °F 94% 30.20 in 10.0 mi Calm Calm - N/A   Clear
5:45 AM 50.0 °F 48.2 °F 94% 30.21 in 10.0 mi Calm Calm - N/A   Clear
6:05 AM 50.0 °F 50.0 °F 100% 30.22 in 5.0 mi Calm Calm - N/A   Clear
6:25 AM 50.0 °F 48.2 °F 94% 30.23 in 10.0 mi Calm Calm - N/A   Clear
6:45 AM 51.8 °F 50.0 °F 94% 30.22 in 10.0 mi Calm Calm - N/A   Clear
7:05 AM 55.4 °F 53.6 °F 94% 30.22 in 10.0 mi Calm Calm - N/A   Clear
7:25 AM 57.2 °F 53.6 °F 88% 30.22 in 10.0 mi Calm Calm - N/A   Clear
7:45 AM 57.2 °F 53.6 °F 88% 30.23 in 10.0 mi ENE 3.5 mph - N/A   Clear
8:05 AM 60.8 °F 53.6 °F 77% 30.24 in 10.0 mi Calm Calm - N/A   Clear
8:25 AM 62.6 °F 53.6 °F 72% 30.25 in 10.0 mi SSE 5.8 mph - N/A   Clear
8:45 AM 64.4 °F 53.6 °F 68% 30.26 in 10.0 mi SSE 3.5 mph - N/A   Clear
9:05 AM 64.4 °F 53.6 °F 68% 30.26 in 10.0 mi SSE 5.8 mph - N/A   Clear
9:25 AM 64.4 °F 53.6 °F 68% 30.25 in 10.0 mi SE 5.8 mph - N/A   Scattered Clouds
9:45 AM 66.2 °F 53.6 °F 64% 30.25 in 10.0 mi SSE 4.6 mph - N/A   Clear
10:05 AM 66.2 °F 53.6 °F 64% 30.24 in 10.0 mi SSE 4.6 mph - N/A   Clear
10:25 AM 66.2 °F 55.4 °F 68% 30.23 in 10.0 mi SE 3.5 mph - N/A   Clear
10:45 AM 66.2 °F 55.4 °F 68% 30.22 in 10.0 mi SE 5.8 mph - N/A   Clear
11:05 AM 68.0 °F 55.4 °F 64% 30.22 in 10.0 mi Calm Calm - N/A   Clear
11:25 AM 68.0 °F 55.4 °F 64% 30.22 in 10.0 mi ESE 3.5 mph - N/A   Clear
11:45 AM 68.0 °F 55.4 °F 64% 30.21 in 10.0 mi ESE 4.6 mph - N/A   Clear
12:05 PM 68.0 °F 55.4 °F 64% 30.21 in 10.0 mi SE 3.5 mph - N/A   Clear
12:25 PM 71.6 °F 55.4 °F 57% 30.20 in 10.0 mi SE 4.6 mph - N/A   Clear
12:45 PM 71.6 °F 55.4 °F 57% 30.20 in 10.0 mi Calm Calm - N/A   Clear
1:05 PM 71.6 °F 55.4 °F 57% 30.20 in 10.0 mi Calm Calm - N/A   Clear
1:25 PM 71.6 °F 53.6 °F 53% 30.19 in 10.0 mi Calm Calm - N/A   Clear
1:45 PM 71.6 °F 55.4 °F 57% 30.19 in 10.0 mi SSE 4.6 mph - N/A   Clear
2:05 PM 71.6 °F 53.6 °F 53% 30.19 in 10.0 mi SSE 4.6 mph - N/A   Scattered Clouds
2:25 PM 73.4 °F 51.8 °F 47% 30.18 in 10.0 mi South 5.8 mph - N/A   Scattered Clouds
2:45 PM 73.4 °F 53.6 °F 50% 30.18 in 10.0 mi South 3.5 mph - N/A   Clear
3:05 PM 71.6 °F 53.6 °F 53% 30.17 in 10.0 mi SSW 8.1 mph - N/A   Scattered Clouds
3:25 PM 75.2 °F 53.6 °F 47% 30.17 in 10.0 mi SSE 6.9 mph - N/A   Scattered Clouds
3:45 PM 73.4 °F 53.6 °F 50% 30.16 in 10.0 mi South 8.1 mph - N/A   Scattered Clouds
4:05 PM 75.2 °F 53.6 °F 47% 30.16 in 10.0 mi South 5.8 mph - N/A   Mostly Cloudy
4:25 PM 75.2 °F 53.6 °F 47% 30.16 in 10.0 mi SE 6.9 mph - N/A   Scattered Clouds
4:45 PM 73.4 °F 51.8 °F 47% 30.15 in 10.0 mi South 8.1 mph - N/A   Scattered Clouds
5:05 PM 73.4 °F 53.6 °F 50% 30.14 in 10.0 mi SSE 4.6 mph - N/A   Scattered Clouds
5:25 PM 73.4 °F 53.6 °F 50% 30.13 in 10.0 mi South 9.2 mph - N/A   Scattered Clouds
5:45 PM 73.4 °F 53.6 °F 50% 30.13 in 10.0 mi SSE 4.6 mph - N/A   Clear
6:05 PM 71.6 °F 53.6 °F 53% 30.12 in 10.0 mi SSE 6.9 mph - N/A   Scattered Clouds
6:25 PM 71.6 °F 55.4 °F 57% 30.12 in 10.0 mi SSW 5.8 mph - N/A   Scattered Clouds
6:45 PM 73.4 °F 51.8 °F 47% 30.12 in 10.0 mi SW 5.8 mph - N/A   Clear
7:05 PM 71.6 °F 53.6 °F 53% 30.11 in 10.0 mi South 4.6 mph - N/A   Clear
7:25 PM 71.6 °F 53.6 °F 53% 30.10 in 10.0 mi South 8.1 mph - N/A   Clear
7:45 PM 69.8 °F 53.6 °F 56% 30.09 in 10.0 mi South 6.9 mph - N/A   Clear
8:05 PM 68.0 °F 55.4 °F 64% 30.09 in 10.0 mi South 3.5 mph - N/A   Clear
8:25 PM 66.2 °F 55.4 °F 68% 30.08 in 10.0 mi SE 3.5 mph - N/A   Clear
8:45 PM 64.4 °F 55.4 °F 73% 30.08 in 10.0 mi SE 3.5 mph - N/A   Clear
9:05 PM 64.4 °F 55.4 °F 73% 30.08 in 10.0 mi SSE 3.5 mph - N/A   Clear
9:25 PM 64.4 °F 57.2 °F 77% 30.08 in 10.0 mi SE 3.5 mph - N/A   Clear
9:45 PM 64.4 °F 57.2 °F 77% 30.07 in 10.0 mi Calm Calm - N/A   Clear
10:05 PM 60.8 °F 55.4 °F 82% 30.07 in 10.0 mi Calm Calm - N/A   Clear
10:25 PM 60.8 °F 57.2 °F 88% 30.07 in 10.0 mi Calm Calm - N/A   Clear
10:45 PM 60.8 °F 57.2 °F 88% 30.07 in 10.0 mi SSE 3.5 mph - N/A   Clear
11:05 PM 62.6 °F 57.2 °F 82% 30.07 in 10.0 mi Calm Calm - N/A   Clear
11:25 PM 60.8 °F 57.2 °F 88% 30.06 in 10.0 mi SE 3.5 mph - N/A   Clear
11:45 PM 60.8 °F 57.2 °F 88% 30.05 in 10.0 mi SE 3.5 mph - N/A   Scattered Clouds